Weather Service Report


663 
ASUS46 KLOX 212212
RWRCA 

SOUTHERN CALIFORNIA WEATHER ROUNDUP
NATIONAL WEATHER SERVICE OXNARD CALIFORNIA
300 PM PDT TUE OCT 21 2014

NOTE: "FAIR" INDICATES FEW OR NO CLOUDS BELOW 12,000 FEET WITH NO 
SIGNIFICANT WEATHER AND/OR OBSTRUCTIONS TO VISIBILITY.

  -  STATIONS PRECEEDED BY AN ASTERISK (*) ARE NOT NWS OR FAA 
     STATIONS AND ARE NOT SUBJECT TO NWS AND FAA QUALITY CONTROL.

CAZ041-042-087-212300-
LA AND ORANGE COUNTY COASTAL AREAS

  
CITY           SKY/WX    TMP DP  RH WIND       PRES   REMARKS
L.A. DOWNTOWN  PTSUNNY   73  61  65 VRB6      29.84F                  
L.A. AIRPORT   PTSUNNY   71  63  75 W14       29.86F                  
LONG BEACH     MOSUNNY   75  61  61 S8        29.84F                  

CITY           SKY/WX    TMP DP  RH WIND       PRES   REMARKS
AVALON           N/A     73 N/A N/A MISG        N/A                   
FULLERTON      MOSUNNY   78  60  53 SW7       29.83F                  
*GETTY CENTER    N/A     68  61  77 SW9G15      N/A                   
HAWTHORNE      PTSUNNY   74  63  68 W10       29.85F                  
*LEO CARRILLO    N/A     75  64  67 W12         N/A                   
*LOS ALAMITOS  PTSUNNY   75  63  64 S9        29.84F                  
*REDONDO BEACH   N/A     74  64  69 W6        29.84F                  
SANTA ANA      MOSUNNY   77  60  55 SW6       29.84F                  
STA MONICA APT PTSUNNY   71  61  70 SW12      29.85F                  
TORRANCE       PTSUNNY   75  64  69 NW15      29.85F                  
*UCLA            N/A    N/A N/A N/A SW13      29.82F                  

$$

CAZ547-548-048-212300-
LA COUNTY VALLEYS AND INLAND EMPIRE

  
CITY           SKY/WX    TMP DP  RH WIND       PRES   REMARKS
BURBANK        MOSUNNY   75  58  55 S9        29.84F                  
VAN NUYS       MOSUNNY   79  55  43 S12       29.83F                  

CITY           SKY/WX    TMP DP  RH WIND       PRES   REMARKS
CORONA AIRPORT PTCLDY    81  54  39 NW8       29.84F                  
*CHATSWORTH      N/A     80  52  38 NW10      29.80F                  
CHINO          MOSUNNY   82  54  37 W7        29.85F                  
*CLAREMONT       N/A     79  47  32 SW6         N/A                   
MARCH AFB      SUNNY     80  46  30 NW8       29.86F                  
*NORTHRIDGE      N/A     81  50  34 S6G12       N/A                   
ONTARIO        PTSUNNY   80  50  34 SW10      29.84F                  
*PASADENA        N/A     77  59  53 E2          N/A                   
POMONA         SUNNY     75  55  50 W10       29.89F                  
RIVERSIDE      MOSUNNY   80  54  40 CALM      29.84F                  
SAN BERNARDINO PTSUNNY   81  45  28 W6        29.85F                  
*SAN GABRIEL     N/A     77  54  44 CALM      29.79F                  
*SAN RAFAEL HI   N/A     79  56  45 E7          N/A                   
*SAUGUS          N/A     83  38  19 W7          N/A                   
*WHITEMAN AP   NOT AVBL                                               
*WHITTIER HILL   N/A     79  59  49 SW7         N/A                   
*WOODLAND HILL   N/A     81  48  32 SW8         N/A                   

$$

CAZ054-055-212300-
LA AND SAN BERNARDINO COUNTY MOUNTAINS

  
CITY           SKY/WX    TMP DP  RH WIND       PRES   REMARKS
*ACTON           N/A     82  26  13 SW9         N/A                   
*BIG BEAR AIRP CLEAR     64  19  17 W9G16     30.09S                  
*BIG PINES       N/A     67  31  26 CALM        N/A                   
MT WILSON NWS    N/A     70  52  52 MISG        N/A                   
SANDBERG       SUNNY     60  43  53 N28G35    30.02F                  
*WARM SPRINGS    N/A     73  39  28 W7G21       N/A                   

$$

CAZ028-029-059-060-099-212300-
ANTELOPE VALLEY AND SURROUNDING AREAS

  
CITY           SKY/WX    TMP DP  RH WIND       PRES   REMARKS
LANCASTER      SUNNY     76  34  21 W23       29.88F                  
PALMDALE       SUNNY     78  32  18 NW13      29.88F                  
*POPPY PARK      N/A     73  37  27 W22G35      N/A                   

CITY           SKY/WX    TMP DP  RH WIND       PRES   REMARKS
29 PALMS       MOSUNNY   83  26  12 VRB3      29.90F                  
BARSTOW/DAGGET SUNNY     84  29  13 W8        29.83F                  
BISHOP         SUNNY     78  -1   4 MISG      29.90F                  
CHINA LAKE     PTSUNNY   78  35  21 CALM      29.85F                  
EDWARDS AFB    PTSUNNY   78  36  21 W13       29.86F                  
MOJAVE         FAIR      72  43  35 W18G31    29.89F                  
NEEDLES        SUNNY     92  43  18 CALM      29.76F                  
VICTORVILLE    MOSUNNY   77  32  19 W7        29.90F                  

$$

CAZ039-040-212300-
VENTURA AND SANTA BARBARA COUNTY COAST

  
CITY           SKY/WX    TMP DP  RH WIND       PRES   REMARKS
CAMARILLO      MOSUNNY   76  58  53 SW9       29.84F                  
NWS OXNARD       N/A     75  56  50 W6        29.85F                  
OXNARD AIRPORT MOSUNNY   72  62  71 W10G22    29.85F                  
*POINT MUGU    MOSUNNY   73  64  73 W10       29.86F                  
SBA APT/GOLETA MOSUNNY   76  57  51 SE8       29.83F                  
*SANTA BARBARA   N/A     78  55  44 CALM      29.91F                  
*VENTURA         N/A     78  54  42 SW5       29.90S                  

$$

CAZ044-045-212300-
VENTURA COUNTY VALLEYS

  
CITY           SKY/WX    TMP DP  RH WIND       PRES   REMARKS
*SIMI VALLEY     N/A     76  56  51 SW3       29.81F                  
*OJAI            N/A     78  56  46 W3        29.79S                  
*FILLMORE        N/A     79  56  44 CALM      29.74F                  

$$

CAZ053-212300-
VENTURA COUNTY MOUNTAINS

  
CITY           SKY/WX    TMP DP  RH WIND       PRES   REMARKS
*LOCKWOOD VLY    N/A     64  37  36 MISG        N/A                   
*ROSE VALLEY     N/A     77  52  41 MISG        N/A                   

$$

CAZ034-035-036-212300-
CENTRAL COAST AND SANTA YNEZ VALLEY

  
CITY           SKY/WX    TMP DP  RH WIND       PRES   REMARKS
SAN LUIS OBISP SUNNY     78  43  28 NW20G25   29.92F                  
SANTA MARIA    SUNNY     77  50  38 W23       29.91F                  

CITY           SKY/WX    TMP DP  RH WIND       PRES   REMARKS
*CAL POLY SLO    N/A     77  45  31 VRB10G22    N/A                   
*LOMPOC        SUNNY     75  46  35 W18G24    29.92S                  
*PISMO BEACH     N/A     79  45  30 W9        29.91F                  
*SANTA YNEZ    FAIR      81  39  22 NW14      29.86F                  

$$

CAZ037-038-051-212300-
SAN LUIS OBISPO COUNTY INTERIOR AND CUYAMA VALLEY

  
CITY           SKY/WX    TMP DP  RH WIND       PRES   REMARKS
*CUYAMA          N/A     65  45  47 N3        29.93F                  
PASO ROBLES    SUNNY     73  43  33 CALM      29.96F                  

$$

CAZ032-033-061-212300-
SOUTHERN DESERTS

  
CITY           SKY/WX    TMP DP  RH WIND       PRES   REMARKS
BLYTHE         SUNNY     91  49  23 SE5       29.76F                  
IMPERIAL       SUNNY     93  47  20 NE6       29.72F                  
PALM SPRINGS   SUNNY     92  39  15 VRB3      29.76F                  
THERMAL        SUNNY     93  49  22 VRB6      29.71F HX  90           

$$

ELSEWHERE ACROSS THE WESTERN UNITED STATES AND MEXICO

  
CITY           SKY/WX    TMP DP  RH WIND       PRES   REMARKS
DENVER, CO     PTSUNNY   77  30  17 VRB6      29.91F                  
GRAND CANYON,  SUNNY     67  33  28 SW14      30.08F                  
HONOLULU, HI   PTSUNNY   84  73  70 VRB7      29.99F HX  91           
KAHULUI, MAUI  MOSUNNY   90  72  55 E16       29.98F HX  96           
LAKE TAHOE, CA SUNNY     58  24  27 CALM      30.07F                  
LAS VEGAS, NV  MOSUNNY   85  18   8 S15G28    29.76F                  
MAMMOTH LAKES, FAIR      66  14  13 W14G23    30.06F                  
MEXICO CITY, M CLOUDY    68  50  52 N7        30.14F                  
PHOENIX, AZ    MOSUNNY   88  50  27 SW8       29.80F                  
PORTLAND, OR   PTSUNNY   62  51  67 S14G21    29.97F                  
RENO, NV       PTSUNNY   63  16  16 VRB6      30.04F                  
SALT LAKE CITY PTSUNNY   60  33  36 NW13G20   30.01S                  
SAN DIEGO, CA  MOSUNNY   74  61  63 NW9       29.86F                  
SAN FRANCISCO, MOSUNNY   71  50  47 W15G23    30.04F                  
SAN JOSE, CA   MOSUNNY   69  44  40 W9        30.02F                  
SEATTLE, WA    CLOUDY    57  50  77 SE12      29.92F                  
TIJUANA, MEX   SUNNY     73  59  60 NW14      29.88S                  

$$
  
STATION/POSITION TIME  TEMP    WIND        PRES    VSBY  WAVE
                       AIR SEA DIR/SP/G                  HT/PER
                 (UTC) (F)     (DEG/KT/KT) (MB)    (MI)  (FT/S)
POINT ARGUELLO B NOT AVBL
WEST SANTA BARBA 2200   65 65  320/ 23/ 29 1011.2F        14/16
POINT CONCEPTION NOT AVBL
EAST SANTA BARBA 2200   68 67  270/ 14/ 16 1010.6F
SANTA MONICA BAY 2200   68 71  260/ 10/ 12 1010.9F         6/12

Return to Home page


Western Regional Climate Center, wrcc@dri.edu